Main page
METAR-TAF:

METAR-TAF

Airports :

Albert Whitted Airport

St. Petersburg, Florida, United States

latitude: 27-46-04N, longitude: 082-37-34W, elevation: 7 ft

Current weather observation

The report was made 1 hour and 8 minutes ago, at 19:53 UTC
Wind 12 mph from the West/Southwest
Temperature 84°F
Humidity 55%
Pressure 30.13 in. Hg
Visibility: 10 miles
Scattered clouds at a height of 3000 ft

METAR: KSPG 271953Z 25010KT 10SM SCT030 29/19 A3013 RMK AO2 SLP202 T02890189

Time: 16:01 (21:01 UTC)


TAF: missing

Weather observations and forecasts of more than 4000 airports (METAR and TAF reports).

The available stations are represented by yellow and red dots on the map.

Hover mouse over dot to see the name of the station.

Then click to see weather observations and forecasts.

To change the map : click on the green buttons with a black cross to zoom in, on the green button with a dash to zoom out, or on the green arrows for adjacent maps.


METAR-TAF: